This demonstration page uses our WeatherBlox Daily Observations layout. Learn more.

39.29038, -76.61219

Hourly Observations for March 28, 2019

Temp ( °F °C ) Dew Point ( °F °C ) Humidity (%) Winds ( mph kmh ) Pressure ( in mb ) Visibility ( mi km ) Precip ( " mm )
12:54 am 00:54 undefined 41 5 28 -2.2 60 60 undefined N/A 30.47 1032 N/A 0 0
1:54 am 01:54 undefined 41 5 24 -4.4 51 51 undefined N/A 30.46 1032 N/A 0 0
2:54 am 02:54 undefined 40 4.4 25 -3.9 55 55 undefined N/A 30.45 1031 N/A 0 0
3:54 am 03:54 undefined 39 3.9 26 -3.3 60 60 undefined N/A 30.44 1031 N/A 0 0
4:54 am 04:54 undefined 38 3.3 27 -2.8 65 65 undefined N/A 30.44 1031 N/A 0 0
5:54 am 05:54 undefined 38 3.3 28 -2.2 68 68 undefined N/A 30.44 1031 N/A 0 0
6:54 am 06:54 undefined 38 3.3 28 -2.2 68 68 undefined N/A 30.45 1031 N/A 0 0
7:54 am 07:54 undefined 39 3.9 29 -1.7 67 67 undefined N/A 30.46 1032 N/A 0 0
8:54 am 08:54 undefined 42 5.6 30 -1.1 62 62 undefined N/A 30.45 1031 N/A 0 0
9:54 am 09:54 undefined 47 8.3 31 -0.6 54 54 undefined N/A 30.45 1031 N/A 0 0
10:54 am 10:54 undefined 49 9.4 27 -2.8 43 43 undefined N/A 30.42 1030 N/A 0 0
11:54 am 11:54 undefined 51 10.6 35 1.7 54 54 undefined N/A 30.4 1029 N/A 0 0
12:54 pm 12:54 undefined 53 11.7 37 2.8 55 55 undefined N/A 30.37 1028 N/A 0 0
1:54 pm 13:54 undefined 55 12.8 36 2.2 49 49 undefined N/A 30.33 1027 N/A 0 0
2:54 pm 14:54 undefined 56 13.3 35 1.7 46 46 undefined N/A 30.29 1026 N/A 0 0
3:54 pm 15:54 undefined 57 13.9 33 0.6 41 41 undefined N/A 30.26 1025 N/A 0 0
4:54 pm 16:54 undefined 57 13.9 33 0.6 41 41 undefined N/A 30.24 1024 N/A 0 0
5:54 pm 17:54 undefined 56 13.3 34 1.1 44 44 undefined N/A 30.23 1024 N/A 0 0
6:54 pm 18:54 undefined 54 12.2 32 0 43 43 undefined N/A 30.22 1023 N/A 0 0
7:54 pm 19:54 undefined 54 12.2 32 0 43 43 undefined N/A 30.22 1024 N/A 0 0
8:54 pm 20:54 undefined 53 11.7 35 1.7 51 51 undefined N/A 30.24 1024 N/A 0 0
9:54 pm 21:54 undefined 52 11.1 38 3.3 59 59 undefined N/A 30.24 1024 N/A 0 0
10:54 pm 22:54 undefined 52 11.1 40 4.4 64 64 undefined N/A 30.22 1024 N/A 0 0
11:54 pm 23:54 undefined 51 10.6 40 4.4 66 66 undefined N/A 30.22 1023 N/A 0 0

Powered by AerisWeather